Flag for Poland Weather past 2 weeks in Gdańsk, Poland

Now
52 °F

Clear.


Feels Like: 51 °F
Forecast: 50 / 60 °F
Wind: 5 mph from Southeast

Location: Gdansk-Rebiechowo

Current Time: Apr 26, 2015 at 12:01:26 AM

Latest Report: Apr 25, 2015 at 11:00 PM


Visibility: 5 mi

Pressure: 29.71 "Hg

Humidity: 62%

Dew point: 39 °F

Location of GdańskLocation

Historic Weather in Gdańsk — Graph

°F

Gdańsk temperature yesterday

Maximum temperature yesterday: 72 °F (at 2:00 PM)
Minimum temperature yesterday: 37 °F (at 5:30 AM)
Average temperature yesterday: 56 °F

Past Weeks' High & Low Weather Summary

 TemperatureHumidityPressure
High72 °F (Apr 25, 2:00 PM)100% (Apr 11, 5:00 AM)30.24 "Hg (Apr 11, 5:00 AM)
Low32 °F (Apr 22, 4:00 AM)23% (Apr 25, 4:30 PM)29.59 "Hg (Apr 15, 10:30 PM)
Average46 °F68%29.98 "Hg
* Reported Apr 10 11:00 PM — Apr 25 11:00 PM, Gdańsk, Weather by CustomWeather, © 2015

Note: Actual official high and low records may vary slightly from our data, if they occured in-between our weather recording intervals... More about our weather records

Advertising

Gdańsk weather history for previous 24 hours

 ConditionsComfort  
Time TempWeatherWind HumidityBarometerVisibility
11:00 PM
Sat, Apr 25
52 °FClear.5 mph62%29.71 "Hg5 mi
10:30 PM54 °FClear.3 mph58%29.71 "Hg5 mi
10:00 PM55 °FClear.3 mph55%29.71 "Hg5 mi
9:30 PM57 °FClear.3 mph51%29.71 "Hg5 mi
9:00 PM59 °FClear.2 mph48%29.74 "Hg5 mi
8:30 PM59 °FClear.2 mph48%29.74 "Hg5 mi
8:00 PM61 °FClear.2 mph42%29.74 "Hg5 mi
7:30 PM61 °FSunny.5 mph45%29.74 "Hg10 mi
7:00 PM63 °FPassing clouds.7 mph45%29.74 "HgN/A
6:30 PM64 °FPassing clouds.7 mph40%29.74 "HgN/A
6:00 PM70 °FPassing clouds.7 mph27%29.71 "HgN/A
5:30 PM72 °FPassing clouds.7 mph25%29.71 "HgN/A
5:00 PM72 °FPassing clouds.12 mph25%29.71 "HgN/A
4:30 PM72 °FPassing clouds.12 mph23%29.71 "HgN/A
4:00 PM72 °FPassing clouds.10 mph25%29.71 "HgN/A
3:30 PM72 °FPassing clouds.13 mph25%29.74 "HgN/A
3:00 PM72 °FPassing clouds.12 mph25%29.74 "HgN/A
2:30 PM72 °FPassing clouds.12 mph27%29.74 "HgN/A
2:00 PM72 °FPassing clouds.12 mph25%29.74 "HgN/A
1:30 PM70 °FPassing clouds.14 mph29%29.77 "HgN/A
1:00 PM70 °FPassing clouds.13 mph31%29.77 "HgN/A
12:30 PM68 °FPassing clouds.14 mph33%29.77 "HgN/A
12:00 PM68 °FPassing clouds.13 mph35%29.80 "HgN/A
11:30 AM66 °FPassing clouds.13 mph37%29.80 "HgN/A
11:00 AM66 °FPassing clouds.9 mph37%29.80 "HgN/A
10:30 AM64 °FPassing clouds.9 mph43%29.80 "HgN/A
10:00 AM63 °FSunny.6 mph52%29.80 "Hg10 mi
9:30 AM61 °FPassing clouds.6 mph55%29.83 "HgN/A
9:00 AM59 °FPassing clouds.7 mph59%29.83 "HgN/A
8:30 AM55 °FPassing clouds.6 mph67%29.83 "HgN/A
8:00 AM50 °FSunny.2 mph100%29.83 "Hg10 mi
7:30 AM45 °FClear.No wind100%29.83 "Hg6 mi
7:00 AM41 °FClear.No wind100%29.83 "Hg6 mi
6:30 AM39 °FFog.2 mph100%29.83 "Hg3 mi
6:00 AM37 °FFog.1 mph100%29.83 "Hg2 mi
5:30 AM37 °FFog.2 mph100%29.83 "Hg1 mi
5:00 AM39 °FFog.1 mph100%29.83 "Hg3 mi
4:30 AM39 °FFog.No wind100%29.83 "Hg3 mi
4:00 AM39 °FFog.1 mph93%29.83 "Hg3 mi
3:30 AM39 °FClear.1 mph100%29.83 "Hg5 mi
3:00 AM39 °FClear.No wind100%29.83 "Hg5 mi
2:30 AM39 °FClear.No wind100%29.83 "Hg5 mi
2:00 AM41 °FClear.No wind93%29.83 "Hg5 mi
1:30 AM41 °FClear.No wind93%29.83 "Hg5 mi
1:00 AM41 °FClear.1 mph93%29.83 "Hg5 mi
12:30 AM41 °FClear.1 mph100%29.86 "Hg10 mi
12:00 AM41 °FClear.1 mph100%29.86 "Hg10 mi
Weather by CustomWeather, © 2015

See weather overviewHow to use our weather pages